Current weather by "City, St" or "zip code"  
 
Advertise Here

Current Conditions: Washington - Washington County Airport, PA

Overcast


29.0 F

Last Updated on Jan 27 2021, 1:56 pm EST
Humidity: 72%
Wind Speed: N 6.9 mph
Barometer 30.18 in
Dewpoint: 21.0 F
Visibility: 10.00 mi
Precip: --
Heat Index: NA
Wind Chill: 22 F
Current conditions at:

Washington - Washington County Airport, PA (KAFJ)

Lat: 40.13333 Lon: 80.28333

Local Radar Image active severe weather and emergency alerts image image weather storm and storm spotter reports image weather observation monitoring service image
Local
Radar
Active
Alerts
Storm Reports Obs
Monitoring

Sign-up For Email & Text Message Weather Alert Notification Services


Advertise Here

Observation History for Washington - Washington County Airport, PA


Time Wind
(mph)
Vis
(mi)
Weather Precip (in) Temperature (F) Relative
Humidity
Wind
Chill
(F)
Heat
Index
(F)
Pressure
Air Dwpt altimeter
(in)
sea level
(mb)
Rmks
1:56 pm EST N 6.9 10.00 Overcast -- 29.0 21.0 72% 22 NA 30.18 1023.2
12:56 pm EST N 8.1 10.00 Overcast -- 29.0 21.0 72% 21 NA 30.20 1023.7
11:56 am EST N 9.2 10.00 Overcast -- 29.0 21.0 72% 20 NA 30.22 1024.5
10:56 am EST N 8.1 10.00 Overcast -- 28.0 21.0 75% 20 NA 30.22 1024.4
9:56 am EST NW 10.4 10.00 Overcast -- 28.0 21.0 75% 19 NA 30.21 1024.0
8:56 am EST N 11.5 10.00 Overcast -- 29.0 21.0 72% 19 NA 30.15 1022.1
7:56 am EST NW 9.2 10.00 Overcast -- 29.0 23.0 78% 20 NA 30.17 1022.6
6:56 am EST NW 6.9 10.00 Overcast -- 30.0 24.1 79% 23 NA 30.17 1022.5
5:56 am EST NW 5.8 10.00 Overcast -- 30.0 25.0 82% 24 NA 30.14 1021.6
4:56 am EST NW 6.9 10.00 Overcast -- 30.0 25.0 82% 23 NA 30.12 1020.8
3:56 am EST NW 11.5 G 17.3 10.00 Overcast -- 31.0 28.0 89% 22 NA 30.09 1020.0
2:56 am EST NW 10.4 10.00 Overcast -- 32.0 28.0 85% 24 NA 30.07 1019.0
1:56 am EST NW 10.4 10.00 Overcast -- 33.0 28.9 85% 25 NA 30.02 1017.3
12:56 am EST NW 8.1 10.00 Overcast -- 34.0 30.9 89% 27 NA 29.99 1016.3
11:56 pm EST NW 13.8 10.00 Overcast -- 35.0 30.9 85% 26 NA 29.97 1015.4
10:56 pm EST W 13.8 10.00 Overcast -- 36.0 32.0 86% 27 NA 29.94 1014.5
9:56 pm EST W 18.4 10.00 Overcast Trace 37.0 33.1 86% 27 NA 29.92 1014.0
8:56 pm EST W 15.0 G 18.4 10.00 Light Rain Trace 39.0 36.0 89% 31 NA 29.90 1013.2
7:56 pm EST W 12.7 8.00 Light Rain 00.02 40.0 37.9 93% 33 NA 29.87 1012.4
6:56 pm EST W 8.1 10.00 Light Rain Trace 41.0 37.0 86% 36 NA 29.85 1011.7
5:56 pm EST SW 11.5 G 18.4 10.00 Overcast Trace 41.0 37.0 86% 34 NA 29.83 1011.1
4:56 pm EST SW 12.7 G 21.9 10.00 Light Rain Trace 40.0 37.0 89% 33 NA 29.81 1010.4
3:56 pm EST SW 15.0 G 26.5 10.00 Overcast Trace 43.0 34.0 71% 36 NA 29.79 1009.6
2:56 pm EST W 20.7 G 29.9 10.00 Light Rain and Breezy Trace 43.0 39.0 86% 34 NA 29.78 1009.2

Regional Weather Observation


Washington - Washington County Airport, PA (KAFJ)

Overcast
29.0 F

Pittsburgh, Pittsburgh International Airport, PA (KPIT)

Overcast
30.0 F

Beaver County Airport, PA (KBVI)

Overcast
31.0 F

Unknown Station (KPJC)

Overcast
32.0 F

Pittsburgh - Allegheny County Airport, PA (KAGC)

Overcast
29.0 F

Butler, Butler County Airport/K W Scholter Field, PA (KBTP)

Overcast
29.0 F